カタログに戻る

FENGYUN 1C DEB

運用中SSO
NORAD 31782·DEBRIS·🇨🇳 China

打ち上げ May 10, 1999 から Taiyuan Satellite Launch Center

Loading…

次のパス (今後24時間)

TLE

最新Source: Space-Track

元期: Sep 12, 2026, 23:19 UTC

1 31782U 99025CGH 26255.97191243  .00000570  00000-0  20242-3 0  9997
2 31782  98.9297  71.8739 0077781 269.5760 243.3952 14.36843569  6077

AllMySatでFENGYUN 1C DEBをリアルタイム追跡

Download on the App Store